Dewpoint
46 51 50 50 49 48 47 47 46 46 46 45 45 44 42 42 42 42 42 42 41 39 40 37 37 35 36 39 37 37 36 32 30 27 28 31 28 28 31 29 28 27 26
47 48 49 48 47 45 45 45 45 45 45 44 43 42 40 39 39 38 37 39 37 37 37 36 35 37 37 38 38 35 34 32 28 25 27 25 26 25 30 29 29 25 25
45 45 47 46 44 44 44 43 43 44 43 42 41 39 39 39 39 38 37 37 37 37 38 37 37 36 38 36 34 33 32 30 28 27 27 28 28 28 25 19 20 24 21
47 47 44 43 42 42 41 41 41 41 40 38 38 38 37 37 36 36 36 36 36 35 36 36 37 37 36 35 34 32 31 28 28 28 29 27 28 27 28 25 26 26 21
45 44 42 41 41 39 39 39 39 38 37 37 36 36 37 36 37 35 35 34 34 34 34 35 32 34 33 33 34 32 31 30 30 29 28 28 25 27 27 28 28 25 24
44 42 40 38 37 38 37 37 37 36 36 36 35 35 35 36 36 35 34 33 33 32 31 27 30 30 30 29 30 32 32 31 30 28 28 26 25 28 26 27 27 25 24
40 39 37 37 35 35 34 34 33 33 34 33 34 34 34 35 35 34 33 32 31 30 28 25 23 27 27 26 25 26 29 31 31 29 28 27 26 26 27 26 26 25 27
37 36 35 34 32 32 32 32 31 32 32 31 32 33 33 34 34 33 31 30 29 28 25 22 22 24 25 25 25 23 23 24 27 27 26 25 25 25 23 23 23 21 22
34 32 32 32 31 31 31 31 31 31 31 32 32 32 32 32 33 32 31 29 28 26 24 21 22 22 24 24 22 21 21 21 22 21 20 20 21 22 21 13 11 13 18
32 32 32 32 32 32 32 32 33 33 32 33 33 32 32 31 32 31 28 25 25 22 20 22 21 21 23 23 21 20 19 16 16 17 19 18 19 20 22 23 23 15 19
33 32 32 32 32 32 33 33 33 33 33 33 32 31 29 29 29 27 25 24 23 23 26 23 24 22 23 22 21 21 20 20 22 21 21 22 21 21 21 20 20 21 20
33 32 31 32 33 33 33 33 33 33 33 32 30 29 28 27 27 28 26 27 26 25 27 25 23 26 27 25 24 22 23 23 22 22 21 21 20 19 20 17 17 16 17
33 32 32 32 33 33 32 33 33 33 32 31 29 28 28 25 27 26 30 28 28 28 27 25 23 26 26 25 24 23 23 24 23 21 21 21 21 19 17 16 15 15 15
33 32 32 32 33 34 35 34 33 32 31 29 29 28 27 24 26 28 27 28 29 28 25 23 23 25 25 24 23 24 25 24 23 22 21 20 18 19 19 19 20 19 18
33 32 32 32 32 33 34 34 33 31 30 29 29 28 26 24 25 27 27 28 28 26 23 22 22 22 21 21 22 24 24 23 23 23 21 18 19 20 17 16 15 14 12
33 32 32 32 32 33 32 33 34 31 30 30 30 29 27 26 26 27 28 29 28 25 23 21 21 21 20 20 20 22 22 22 23 22 20 20 19 18 16 16 14 12 11
33 32 31 31 31 31 31 31 30 32 31 31 30 30 29 27 26 26 28 28 27 24 23 22 22 21 21 20 20 22 20 20 22 21 20 19 18 18 16 14 12 13 11
33 32 31 31 31 31 31 31 31 30 30 31 31 31 29 26 26 27 28 27 25 24 23 22 23 23 21 20 20 20 20 20 20 19 19 19 18 16 13 14 14 12 13
33 32 32 31 31 31 31 31 31 31 30 30 30 30 27 27 27 27 26 23 22 23 23 24 24 24 22 21 20 20 21 20 20 18 19 19 18 17 15 14 14 14 13
32 32 32 31 31 31 31 31 30 30 30 29 29 28 28 27 26 25 24 24 22 24 24 24 24 24 23 23 23 22 22 21 20 20 19 19 20 18 17 17 17 14 10
31 31 31 31 31 31 31 31 31 29 29 28 28 29 28 26 25 24 25 26 24 24 26 25 25 25 24 24 25 24 22 22 21 20 20 20 21 21 18 18 21 18 17
31 31 31 31 31 31 31 31 31 30 29 28 29 29 28 26 26 25 26 27 26 26 26 27 27 27 26 25 25 24 22 22 22 21 21 21 21 21 21 19 19 20 18
31 31 31 31 32 32 32 31 31 30 28 28 28 28 27 27 27 26 26 28 28 27 28 27 28 27 27 26 26 25 23 23 23 23 22 22 22 23 22 21 19 20 19
32 32 32 32 32 32 32 31 30 29 29 29 28 27 27 28 28 28 27 29 28 28 29 28 27 27 27 27 26 26 25 24 25 25 24 24 24 22 23 22 20 20 17
32 32 32 32 31 32 31 30 30 30 30 29 28 26 26 31 29 30 30 29 29 28 29 29 28 27 27 27 26 25 25 26 26 26 26 25 25 24 23 21 20 18 15
31 32 32 31 31 31 31 31 30 31 30 29 28 27 27 30 27 30 31 30 29 29 29 29 27 24 27 27 26 26 27 27 27 26 24 23 24 23 21 19 18 16 11
Wind_Speed
22 21 23 21 20 17 18 17 16 14 17 22 22 22 20 17 23 21 20 21 23 19 18 18 11 14 9 10 17 19 17 20 24 14 16 18 18 16 18 17 17 14 12
6 7 7 13 17 19 19 19 19 18 15 18 17 19 18 16 10 21 23 20 23 22 20 18 16 13 13 10 14 15 9 22 28 26 16 16 16 15 14 18 18 16 13
7 16 25 20 19 20 20 20 19 22 19 16 17 18 16 20 16 12 20 20 19 19 16 16 19 17 15 14 15 15 19 19 21 25 19 14 13 14 15 9 13 19 14
4 4 10 17 20 21 21 21 24 23 26 23 19 18 16 14 21 18 20 25 21 19 15 15 12 15 15 14 17 19 21 22 21 21 17 16 7 3 10 15 11 9 11
11 12 17 18 15 16 19 21 22 25 24 26 27 24 21 19 16 19 20 24 23 21 18 17 16 18 16 12 15 19 23 21 20 18 15 11 9 8 11 4 9 9 4
9 12 11 13 15 17 19 20 24 23 26 28 27 28 23 16 21 23 21 26 21 19 18 18 19 22 20 22 21 19 19 22 20 18 14 14 12 12 9 10 12 10 4
5 7 13 14 17 17 18 21 22 24 25 24 24 25 22 22 26 25 26 21 18 18 18 19 17 15 18 20 24 25 20 18 18 18 19 18 16 13 12 10 10 8 3
1 6 10 14 16 18 19 21 22 23 25 25 23 23 22 22 25 26 24 21 19 18 18 16 20 17 16 18 21 23 20 18 17 16 16 16 13 14 14 9 12 8 13
5 8 10 12 17 20 20 20 19 20 19 19 20 20 22 22 27 28 23 21 21 21 17 20 19 19 20 23 24 23 22 20 26 27 24 21 18 17 12 5 8 9 9
4 7 9 11 15 18 20 22 18 19 20 20 19 19 22 22 25 24 20 20 22 19 20 18 21 18 22 23 21 22 21 15 18 17 15 16 14 15 15 12 10 1 7
7 10 11 12 14 14 18 19 20 20 20 19 19 19 21 21 18 16 20 19 21 21 18 21 16 17 18 27 22 18 19 18 18 17 15 12 12 12 12 13 14 11 7
8 12 13 14 13 14 18 18 21 19 19 19 22 19 18 17 15 16 22 20 21 22 19 18 18 20 20 26 24 28 24 18 14 14 14 13 13 11 11 11 13 14 14
10 12 14 13 16 16 18 15 16 18 20 20 19 19 18 15 11 13 21 23 21 19 17 21 26 24 27 27 31 29 20 14 15 15 13 12 10 13 13 12 10 10 10
11 12 14 13 16 18 17 17 16 18 19 20 20 20 20 19 15 16 21 21 22 20 25 24 21 18 17 20 22 17 13 12 14 14 14 12 12 10 9 9 9 9 7
13 14 14 12 13 16 17 15 18 18 21 22 21 23 26 25 21 21 23 22 20 22 23 19 18 17 17 15 14 13 13 13 13 14 15 13 12 11 11 6 5 6 2
14 14 15 14 13 14 14 19 14 19 20 16 21 20 17 20 28 27 26 26 28 30 21 22 19 17 17 17 16 15 14 14 13 14 14 13 12 12 12 9 8 4 2
12 15 15 16 16 15 16 20 19 14 24 26 25 25 24 30 31 29 28 30 33 26 19 20 19 18 17 16 16 15 14 13 13 13 14 13 14 12 14 11 9 6 5
16 17 17 17 17 16 16 17 19 21 21 21 23 22 29 34 32 31 31 30 26 17 18 19 18 18 18 18 17 15 16 14 14 13 13 13 13 13 12 10 11 10 9
18 17 16 16 16 17 15 17 17 17 18 19 19 20 29 33 32 31 32 23 23 18 17 17 17 17 18 17 17 16 16 16 15 15 13 14 14 14 13 12 11 10 8
14 18 16 16 17 18 18 19 19 19 19 20 19 21 24 27 27 26 22 18 19 16 18 18 17 16 15 15 16 16 16 17 16 15 14 13 13 13 12 13 12 11 10
11 15 16 14 15 17 18 20 19 20 19 19 19 22 27 25 24 24 21 20 19 16 16 17 17 16 15 11 15 15 17 16 15 15 14 13 13 14 13 11 10 12 12
11 13 14 13 15 15 16 17 18 19 19 20 19 22 26 20 21 21 18 17 17 14 14 15 15 16 15 14 15 15 16 16 15 15 15 14 14 13 13 14 12 11 12
10 12 12 12 14 15 15 16 16 17 19 19 19 22 24 19 20 19 18 16 16 16 13 14 11 14 14 15 15 16 15 15 15 16 16 14 14 13 13 13 13 11 11
9 11 11 11 13 15 15 17 16 17 18 18 20 21 22 17 19 20 19 17 16 15 13 13 13 11 15 14 14 14 15 15 15 16 15 13 13 14 12 12 13 11 12
7 9 10 11 13 15 16 17 17 18 17 19 19 19 20 14 18 19 18 18 17 16 15 13 12 13 15 16 15 15 15 16 15 14 14 13 12 13 13 12 12 12 13
8 9 10 11 12 12 15 17 18 18 19 19 19 17 19 17 19 17 17 18 17 16 16 15 15 16 15 17 17 15 15 15 14 15 13 11 9 9 11 12 13 12 13
Wind_Direction
226 211 204 207 205 197 195 184 178 171 172 174 181 189 183 182 160 154 157 153 149 149 147 153 143 137 165 164 154 157 174 159 136 135 139 144 136 147 133 135 139 133 123
227 345 183 203 193 190 189 180 166 171 170 169 169 166 153 150 168 147 151 150 145 143 145 152 139 136 169 177 145 139 129 139 137 137 136 141 139 149 156 163 165 138 123
194 185 197 190 196 191 187 177 171 161 157 157 151 150 159 147 143 148 133 125 123 128 137 151 141 166 166 153 139 133 120 123 130 135 142 144 147 150 143 125 109 134 130
84 138 162 188 197 184 173 167 159 156 148 141 133 130 125 121 129 126 116 114 111 108 103 94 116 137 141 136 138 133 126 126 130 132 137 135 113 86 155 156 129 96 144
223 210 209 199 188 175 168 159 148 146 139 127 129 125 121 120 116 124 120 113 114 111 99 106 94 96 99 111 120 128 125 128 132 131 135 127 139 151 147 125 135 120 68
253 221 201 177 162 165 153 150 139 137 138 139 138 134 134 123 120 119 128 112 113 114 119 110 97 93 94 93 94 103 118 130 136 139 142 151 160 141 141 147 141 145 156
240 182 175 168 156 148 144 144 139 143 140 139 135 135 140 140 138 130 114 116 133 136 134 125 115 115 111 107 100 95 101 132 145 149 153 154 148 151 158 164 164 191 128
145 137 143 147 144 141 138 139 136 137 137 137 143 141 138 146 136 126 131 137 145 142 142 139 132 136 137 131 110 93 75 63 100 114 125 137 137 154 164 162 175 136 117
138 154 149 143 143 146 141 140 135 130 133 137 138 135 136 142 143 152 150 153 149 144 142 134 145 143 154 137 119 111 97 87 85 93 98 97 90 75 60 95 142 168 161
184 167 146 141 147 148 142 137 133 133 132 135 128 129 135 145 161 171 161 145 140 136 134 146 142 147 152 132 126 121 115 121 111 104 93 86 82 77 64 57 62 149 126
141 132 137 140 138 138 137 138 136 133 132 139 129 134 149 157 160 163 142 143 137 134 133 133 122 115 120 129 129 129 131 127 120 115 115 116 109 88 78 63 54 61 80
136 134 135 132 130 137 135 139 136 139 145 139 129 132 142 151 161 142 136 136 142 143 138 137 124 113 118 126 120 127 131 126 132 128 131 131 121 112 99 89 77 79 74
144 146 140 138 135 136 136 141 142 141 137 135 136 137 141 150 136 131 145 143 137 130 133 134 125 118 116 121 132 135 137 142 140 139 140 131 116 118 121 113 106 106 110
150 157 155 148 150 149 149 148 147 149 150 150 146 145 149 155 140 142 136 129 129 127 129 131 127 123 123 131 133 136 141 149 148 146 134 123 123 151 149 155 153 164 156
155 161 164 159 154 157 161 158 157 165 165 165 164 158 157 168 165 155 150 146 142 140 136 132 136 133 137 138 143 140 141 148 151 138 136 141 158 152 136 141 119 146 219
152 165 170 167 163 155 146 143 150 163 168 162 157 157 160 157 155 155 149 145 146 147 147 150 155 155 156 154 156 154 155 162 153 147 150 162 153 152 144 158 154 187 187
171 171 170 168 169 162 155 149 140 141 164 156 160 159 159 156 154 155 152 150 151 153 156 162 163 160 158 159 165 163 159 174 160 159 163 161 156 161 155 159 170 182 202
166 168 173 175 173 168 162 155 147 146 150 151 150 152 151 155 155 157 152 149 158 172 162 163 164 160 165 167 167 166 164 174 163 166 163 159 157 149 156 176 180 193 212
163 168 168 166 168 163 155 150 152 150 149 148 146 145 152 155 155 157 157 160 168 172 168 165 165 167 169 170 169 170 166 167 167 169 169 163 167 166 176 200 199 198 193
156 159 161 160 162 163 159 154 154 151 150 152 155 153 153 153 159 163 170 169 178 179 167 165 167 171 177 173 166 165 164 164 170 169 175 173 175 183 194 200 199 179 192
156 152 152 152 158 159 152 153 155 152 157 159 158 159 163 166 166 171 179 176 181 181 166 166 166 168 176 185 158 161 165 168 171 173 177 184 182 189 197 207 206 190 185
152 152 154 156 145 143 146 151 157 155 160 158 154 161 165 168 170 175 182 173 177 180 171 166 170 171 176 179 163 168 171 174 173 176 182 188 193 196 193 201 204 197 202
148 148 148 157 152 157 156 155 155 156 158 158 157 163 171 174 173 176 180 176 174 178 173 177 168 164 174 172 166 174 179 183 180 179 185 191 194 194 196 196 200 203 192
147 152 158 158 157 156 153 153 154 157 158 160 164 170 174 177 173 174 176 172 168 169 165 166 172 165 164 172 179 173 178 179 177 184 184 191 193 198 191 191 194 191 171
159 158 160 160 162 163 154 157 160 163 163 163 164 169 177 177 168 171 171 170 169 165 169 169 174 177 170 163 165 168 171 171 171 174 181 182 193 199 186 172 168 156 144
185 176 164 161 165 165 169 167 171 169 165 167 165 172 184 178 177 169 165 167 166 168 169 173 178 184 172 170 175 168 159 162 162 158 156 159 162 152 146 146 150 146 154